Agassiz, British Columbia

3:27 AM PDT on October 22, 2017 (GMT -0700)
Agassiz

Weather History for CWZA - March, 2013

Change the Weather History Date:

Monday, March 11, 2013

  Actual Average Record
Temperature  
Mean Temperature 44 °F -  
Max Temperature 51 °F 54 °F - ()
Min Temperature 38 °F 38 °F - ()
Degree Days  
Heating Degree Days 20    
Moisture  
Dew Point 39 °F    
Average Humidity 80    
Maximum Humidity 97    
Minimum Humidity 52    
Precipitation  
Precipitation 0.00 in 0.18 in - ()
Sea Level Pressure  
Sea Level Pressure 30.36 in    
Wind  
Wind Speed 1 mph ()    
Max Wind Speed 4 mph    
Max Gust Speed -    
T = Trace of Precipitation, MM = Missing Value Source: Averaged Metar Reports

Daily Weather History Graph

Daily Weather History Graph

Search for Another Location

Airport or City:

Trip Planner

Search our weather history database for the weather conditions in past years. The results will help you decide how hot, cold, wet, or windy it might be!

Date:

Astronomy

Mar. 11, 2013 Rise Set
Actual Time 7:28 AM PDT 7:06 PM PDT
Civil Twilight 6:56 AM PDT 7:38 PM PDT
Nautical Twilight 6:19 AM PDT 8:15 PM PDT
Astronomical Twilight 5:42 AM PDT 8:53 PM PDT
Moon 7:02 AM PDT (3/11) 7:30 PM PDT (3/11)
Length of Visible Light 12h 41m
Length of Day
11h 38m
Waning Crescent, 0% of the Moon is Illuminated
Mar 11
Waning Crescent
Mar 11
New
Mar 19
First Quarter
Mar 27
Full
Apr 2
Last Quarter

Hourly Weather History & Observations

Time (PDT) Temp. Windchill Dew Point Humidity Pressure Visibility Wind Dir Wind Speed Gust Speed Precip Events Conditions
12:00 AM 43.0 °F - 40.3 °F 90% 30.44 in - Calm Calm - N/A   Unknown
1:00 AM 42.4 °F - 39.9 °F 91% 30.44 in - Calm Calm - N/A   Unknown
2:00 AM 40.8 °F - 39.0 °F 93% 30.44 in - North 1.2 mph - N/A   Unknown
3:00 AM 41.5 °F - 39.6 °F 93% 30.44 in - ENE 1.2 mph - N/A   Unknown
4:00 AM 40.6 °F - 38.8 °F 93% 30.43 in - Calm Calm - N/A   Unknown
5:00 AM 41 °F - 39 °F 89% 30.43 in - South 1.2 mph - -  
5:00 AM 40.6 °F - 38.8 °F 93% 30.43 in - South 1.2 mph - N/A   Unknown
6:00 AM 38.8 °F - 37.8 °F 96% 30.43 in - Calm Calm - N/A   Unknown
7:00 AM 38.7 °F - 37.2 °F 95% 30.43 in - North 1.2 mph - N/A   Unknown
8:00 AM 39.6 °F - 38.7 °F 97% 30.43 in - South 2.3 mph - N/A   Unknown
9:00 AM 40.5 °F - 39.6 °F 97% 30.43 in - Calm Calm - N/A   Unknown
10:00 AM 42.8 °F - 39.9 °F 90% 30.44 in - Calm Calm - N/A   Unknown
11:00 AM 46 °F - 39 °F 68% 30.42 in - SSW 1.2 mph - -  
11:00 AM 46.4 °F - 38.8 °F 75% 30.42 in - SSW 1.2 mph - N/A   Unknown
12:00 PM 46.0 °F - 39.2 °F 77% 30.41 in - SW 1.2 mph - N/A   Unknown
1:00 PM 48.9 °F - 39.4 °F 70% 30.38 in - South 2.3 mph - N/A   Unknown
2:00 PM 49.6 °F - 38.8 °F 66% 30.35 in - SSE 2.3 mph - N/A   Unknown
3:00 PM 51.3 °F - 39.9 °F 65% 30.32 in - West 2.3 mph - N/A   Unknown
4:00 PM 50.2 °F - 38.5 °F 64% 30.31 in - SSW 3.5 mph - N/A   Unknown
5:00 PM 50 °F - 38 °F 52% 30.30 in - SW 3.5 mph - -  
5:00 PM 50.0 °F - 37.8 °F 63% 30.30 in - SW 3.5 mph - N/A   Unknown
6:00 PM 49.5 °F - 37.0 °F 62% 30.28 in - West 1.2 mph - N/A   Unknown
7:00 PM 47.5 °F - 40.1 °F 76% 30.26 in - North 1.2 mph - N/A   Unknown
8:00 PM 46.8 °F - 37.9 °F 71% 30.23 in - West 1.2 mph - N/A   Unknown
9:00 PM 45.3 °F - 38.7 °F 78% 30.22 in - Calm Calm - N/A   Unknown
10:00 PM 45.5 °F 44.2 °F 39.2 °F 79% 30.20 in - South 3.5 mph - N/A   Unknown
11:00 PM 45 °F - 40 °F 78% 30.20 in - SSW 1.2 mph - -  
11:00 PM 44.6 °F - 40.3 °F 85% 30.20 in - SSW 1.2 mph - N/A   Unknown